DateTimeUTC,F1_A11,F1_S11,BsB_S11,BsG_S11,BsR_S11,BbsB_S11,BbsG_S11,BbsR_S11,BaB_A11,BaG_A11,BaR_A11,Tu_S11,T_S11,Uu_S11,U_S11,P_S11,T1_A11
2021-12-01T08:00:00Z,00000200,21000000,,,,,,,-000.19,0000.46,-000.28,19.3,26.4,,00.0,0641.8,30.9
2021-12-01T08:01:00Z,00000200,21000000,,,,,,,0000.18,-000.67,0000.03,19.3,26.4,,00.0,0641.8,30.9
2021-12-01T08:02:00Z,00000200,21000000,,,,,,,-000.46,-000.02,-000.42,19.3,26.4,,00.0,0641.8,30.9
2021-12-01T08:03:00Z,00000200,61000000,,,,,,,0000.08,0000.31,-000.12,19.3,26.4,,00.0,0641.8,30.9
2021-12-01T08:04:00Z,00000200,41000000,0000.02,0000.02,0000.44,0000.40,-000.02,0000.07,0000.08,-000.23,0000.21,19.6,26.3,,00.0,0642.7,31.0
2021-12-01T08:05:00Z,00000200,01000000,-000.03,-000.10,0000.07,0000.14,0000.30,0000.28,0000.43,0000.30,0000.09,19.7,26.3,,00.0,0642.8,31.0
2021-12-01T08:06:00Z,00000200,01000000,0000.72,0000.24,0000.06,0000.06,0000.12,0000.00,-000.07,-000.11,0000.15,19.8,26.3,,00.0,0642.8,31.0
2021-12-01T08:07:00Z,00000200,01000000,0000.37,0000.25,-000.06,0000.03,0000.21,0000.32,-000.09,-000.19,-000.14,19.8,26.3,,00.0,0642.8,31.0
2021-12-01T08:08:00Z,00000200,01000000,-000.45,0000.17,0000.16,0000.39,0000.25,-000.19,0000.08,0000.17,0000.04,19.8,26.3,,00.0,0642.9,31.0
2021-12-01T08:09:00Z,00000200,01000000,-000.16,-000.04,0000.14,0000.10,0000.53,-000.34,-000.08,-000.03,-000.22,19.8,26.3,,00.0,0642.8,31.0
2021-12-01T08:10:00Z,00000200,01000000,-000.14,0000.07,0000.26,0000.24,0000.31,-000.04,0000.27,0000.26,0000.03,19.8,26.3,,00.0,0642.8,31.0
2021-12-01T08:11:00Z,00000200,01000000,0000.65,0000.22,-000.19,-000.12,0000.13,-000.25,-000.37,-000.23,0000.36,19.7,26.3,,00.0,0642.8,30.9
2021-12-01T08:12:00Z,00000200,01000000,0000.09,-000.04,0000.52,-000.27,0000.21,0000.16,-000.02,0000.40,-000.20,19.7,26.3,,00.0,0642.8,30.9
2021-12-01T08:13:00Z,00000200,01000000,0000.26,-000.00,0000.10,-000.14,0000.25,0000.40,0000.30,-000.16,0000.16,19.6,26.2,,00.0,0642.7,30.9
2021-12-01T08:14:00Z,00000200,01000000,-000.29,0000.07,-000.03,0000.09,0000.52,-000.22,0000.23,0000.10,-000.03,19.5,26.2,,00.0,0642.7,30.9
2021-12-01T08:15:00Z,00000200,01000000,0000.14,0000.01,0000.07,-000.09,-000.18,-000.29,-000.01,-000.10,0000.24,19.5,26.2,,00.0,0642.7,30.9
2021-12-01T08:16:00Z,00000200,01000000,0000.53,-000.31,-000.21,0000.18,-000.00,0000.18,-000.19,0000.20,-000.05,19.5,26.1,,00.0,0642.7,30.9
2021-12-01T08:17:00Z,00000200,01000000,0000.82,0000.06,0000.23,-000.11,0000.29,0000.08,0000.33,-000.08,-000.23,19.5,26.1,,00.0,0642.7,30.9
2021-12-01T08:18:00Z,00000200,01000000,0000.39,0000.06,-000.10,-000.35,0000.44,0000.12,0000.27,0000.36,0000.53,19.6,26.1,,00.0,0642.8,30.9
2021-12-01T08:19:00Z,00000200,01000000,0000.44,-000.43,0000.24,-000.06,-000.11,-000.04,-000.05,0000.02,-000.19,19.7,26.2,,00.0,0642.8,31.0
2021-12-01T08:20:00Z,00000200,01000000,0000.62,0000.35,-000.45,0000.35,0000.09,0000.03,-000.19,0000.06,0000.05,19.7,26.2,,00.0,0642.8,31.0
2021-12-01T08:21:00Z,00000200,01000000,0000.40,0000.11,0000.07,-000.25,0000.21,0000.02,0000.20,-000.04,-000.07,19.8,26.2,,00.0,0642.7,31.0
2021-12-01T08:22:00Z,00000200,01000000,0000.76,0000.53,0000.08,0000.53,0000.34,0000.05,0000.06,-000.05,0000.01,19.8,26.2,,00.0,0642.7,31.0
2021-12-01T08:23:00Z,00000200,01000000,0000.01,0000.01,0000.10,0000.27,0000.48,0000.13,-000.22,-000.12,0000.26,19.9,26.3,,00.0,0642.7,31.0
2021-12-01T08:24:00Z,00000200,01000000,0000.10,0000.36,0000.07,-000.07,0000.19,0000.20,0000.28,0000.36,-000.00,19.9,26.3,,00.0,0642.7,31.0
2021-12-01T08:25:00Z,00000200,01000000,0000.42,-000.31,-000.06,0000.11,0000.09,-000.07,-000.07,-000.48,-000.20,19.9,26.3,,00.0,0642.7,31.0
2021-12-01T08:26:00Z,00000200,01000000,-000.09,0000.14,0000.44,-000.35,0000.61,-000.18,-000.23,0000.05,-000.02,19.9,26.3,,00.0,0642.7,31.0
2021-12-01T08:27:00Z,00000200,01000000,0000.19,-000.28,0000.12,-000.31,0000.39,0000.08,0000.12,0000.04,-000.07,19.8,26.3,,00.0,0642.6,31.0
2021-12-01T08:28:00Z,00000200,01000000,0000.17,0000.19,0000.10,0000.11,0000.15,-000.17,-000.08,0000.06,-000.30,19.7,26.3,,00.0,0642.6,30.9
2021-12-01T08:29:00Z,00000200,01000000,-000.73,-000.21,0000.08,-000.54,-000.11,-000.05,-000.04,-000.48,0000.05,19.7,26.3,,00.0,0642.6,30.9
2021-12-01T08:30:00Z,00000200,01000000,0000.67,0000.12,0000.38,-000.15,-000.08,0000.19,-000.06,0000.52,0000.14,19.6,26.2,,00.0,0642.6,30.9
2021-12-01T08:31:00Z,00000200,01000000,0000.45,0000.21,-000.09,-000.31,0000.02,0000.18,0000.40,-000.19,0000.32,19.6,26.2,,00.0,0642.6,30.9
2021-12-01T08:32:00Z,00000200,01000000,0000.03,-000.06,-000.09,-000.34,0000.44,-000.05,-000.33,0000.24,-000.45,19.6,26.2,,00.0,0642.5,30.9
2021-12-01T08:33:00Z,00000200,01000000,0000.07,0000.07,0000.09,-000.11,0000.36,0000.03,0000.49,0000.03,0000.28,19.7,26.2,,00.0,0642.5,30.9
2021-12-01T08:34:00Z,00000200,01000000,-000.11,-000.04,0000.20,-000.13,0000.18,-000.07,0000.09,-000.30,0000.01,19.7,26.2,,00.0,0642.5,30.9
2021-12-01T08:35:00Z,00000200,01000000,-000.44,0000.12,-000.18,-000.18,0000.33,-000.04,-000.24,0000.50,0000.06,19.8,26.2,,00.0,0642.5,30.9
2021-12-01T08:36:00Z,00000200,01000000,0000.79,-000.08,0000.01,0000.09,0000.47,-000.07,-000.11,-000.21,-000.15,19.8,26.2,,00.0,0642.5,31.0
2021-12-01T08:37:00Z,00000200,01000000,0000.30,-000.12,-000.02,-000.09,0000.07,0000.36,-000.13,0000.31,-000.22,19.9,26.3,,00.0,0642.4,31.0
2021-12-01T08:38:00Z,00000200,01000000,-000.15,-000.12,0000.25,-000.74,0000.27,-000.11,0000.17,-000.28,0000.07,19.9,26.3,,00.0,0642.4,31.0
2021-12-01T08:39:00Z,00000200,01000000,-000.39,-000.16,0000.35,-000.08,-000.02,-000.32,-000.21,-000.28,-000.04,20.0,26.3,,00.0,0642.5,31.0
2021-12-01T08:40:00Z,00000200,01000000,0000.69,-000.05,0000.33,-000.03,0000.42,-000.01,-000.34,-000.24,-000.11,20.0,26.3,,00.0,0642.5,31.0
2021-12-01T08:41:00Z,00000200,01000000,-000.17,0000.01,-000.05,-000.46,0000.74,0000.07,0000.22,0000.02,-000.33,20.0,26.4,,00.0,0642.5,31.0
2021-12-01T08:42:00Z,00000200,01000000,0000.02,-000.34,0000.07,-000.09,0000.41,0000.10,-000.14,-000.30,-000.01,20.0,26.4,,00.0,0642.4,31.0
2021-12-01T08:43:00Z,00000200,01000000,-000.51,0000.21,0000.19,-000.37,0000.51,0000.07,-000.10,0000.02,-000.35,19.9,26.4,,00.0,0642.4,31.0
2021-12-01T08:44:00Z,00000200,01000000,-000.10,-000.03,-000.15,-000.14,0000.50,0000.18,-000.25,0000.23,0000.34,19.9,26.4,,00.0,0642.4,30.9
2021-12-01T08:45:00Z,00000200,01000000,-000.24,0000.20,-000.34,0000.27,-000.05,-000.44,-000.01,-000.31,-000.40,19.8,26.3,,00.0,0642.4,30.9
2021-12-01T08:46:00Z,00000200,01000000,0000.36,0000.11,0000.13,0000.03,0000.36,-000.15,0000.17,-000.02,0000.03,19.8,26.3,,00.0,0642.4,30.9
2021-12-01T08:47:00Z,00000200,01000000,0000.09,-000.31,0000.37,-000.11,0000.07,-000.22,-000.33,-000.01,-000.20,19.8,26.3,,00.0,0642.4,30.9
2021-12-01T08:48:00Z,00000200,01000000,-000.83,0000.03,0000.00,-000.65,0000.19,-000.13,-000.01,-000.17,-000.21,19.8,26.3,,00.0,0642.4,30.9
2021-12-01T08:49:00Z,00000200,01000000,-000.07,-000.03,0000.17,-000.07,-000.02,0000.13,0000.04,-000.18,0000.08,19.9,26.3,,00.0,0642.5,31.0
2021-12-01T08:50:00Z,00000200,01000000,0000.04,-000.15,0000.11,0000.49,0000.04,-000.21,0000.16,0000.24,0000.27,19.9,26.3,,00.0,0642.5,31.0
2021-12-01T08:51:00Z,00000200,01000000,0000.45,-000.11,0000.09,-000.28,0000.32,0000.07,-000.10,-000.07,-000.15,20.0,26.4,,00.0,0642.5,31.0
2021-12-01T08:52:00Z,00000200,01000000,0000.46,-000.11,0000.08,0000.32,0000.33,0000.11,0000.08,-000.10,-000.06,20.0,26.4,,00.0,0642.5,31.0
2021-12-01T08:53:00Z,00000200,01000000,0000.79,-000.05,-000.39,-000.16,0000.36,-000.10,-000.01,-000.00,-000.26,20.1,26.4,,00.0,0642.5,31.0
2021-12-01T08:54:00Z,00000200,01000000,-000.32,0000.07,0000.16,-000.29,-000.07,-000.04,-000.31,-000.10,0000.43,20.1,26.4,,00.0,0642.4,31.0
2021-12-01T08:55:00Z,00000200,01000000,0000.04,0000.05,-000.04,0000.16,0000.10,-000.24,-000.04,0000.12,-000.66,20.2,26.4,,00.0,0642.4,31.0
2021-12-01T08:56:00Z,00000200,01000000,0000.17,0000.09,0000.25,-000.49,0000.06,-000.17,0000.21,0000.33,0000.51,20.2,26.5,,00.0,0642.3,31.0
2021-12-01T08:57:00Z,00000200,41000000,,,,,,,0001.35,0001.19,0001.56,20.3,26.5,,00.0,0642.3,31.0
2021-12-01T08:58:00Z,00000200,61000000,,,,,,,-000.64,-000.53,-000.90,20.0,26.6,,00.0,0641.4,31.0
2021-12-01T08:59:00Z,00000200,21000000,,,,,,,-000.38,-000.64,-000.16,19.9,26.7,,00.0,0641.3,31.0
